Tracking 29892 objects as of 21-Nov-2024
HD Live streaming from Space Station
objects crossing your sky now

STARLINK-5995

Track STARLINK-5995 now!
10-day predictions
STARLINK-5995 is classified as:


NORAD ID: 56456
Int'l Code: 2023-064J
Perigee: 577.2 km
Apogee: 581.1 km
Inclination: 70.0 °
Period: 96.1 minutes
Semi major axis: 6950 km
RCS: Unknown
Launch date: May 10, 2023
Source: United States (US)
Launch site: AIR FORCE WESTERN TEST RANGE (AFWTR)
Your satellite tracking list
Your tracking list is empty




NASA's NSSDC Master Catalog

Two Line Element Set (TLE):
1 56456U 23064J   24325.28457678  .00000492  00000-0  48977-4 0  9998
2 56456  69.9997 260.6405 0002772 267.4539  92.6303 14.98336416 84183
Source of the keplerian elements: AFSPC